Temperature
16 16 16 16 16 16 16 16 17 17 17 16 16 15 15 15 15 15 15 15 15 15 15 16 16 15 15 15 15 15 15 15 15 15 15 15 15 15
16 16 16 16 16 16 16 16 16 16 17 16 15 15 15 15 15 15 15 15 15 15 15 15 15 15 15 15 15 15 15 15 15 15 15 15 14 14
15 15 15 15 15 15 15 15 15 16 16 16 15 15 14 14 15 14 14 14 15 15 15 15 15 15 15 15 15 14 14 14 14 14 14 14 14 14
15 15 15 15 15 15 15 15 15 15 15 15 15 14 14 14 14 14 14 14 14 14 14 14 14 14 14 14 14 14 14 14 14 14 14 14 14 14
15 15 15 15 15 15 15 15 15 15 14 15 15 14 14 14 14 14 14 14 14 14 14 14 14 14 14 14 14 14 14 14 14 14 14 14 14 13
15 15 15 14 14 14 14 14 14 14 14 14 14 14 14 13 13 14 14 14 14 14 14 13 14 14 13 14 14 14 13 13 13 13 13 13 13 13
15 14 14 14 14 14 14 14 14 14 14 14 14 14 14 13 13 14 14 14 13 13 13 13 13 13 13 13 13 13 13 13 13 13 13 13 13 13
14 14 14 14 14 14 14 14 14 13 14 14 14 14 13 13 13 13 13 13 13 13 13 13 13 13 13 13 13 13 13 13 13 13 13 13 13 13
14 14 14 14 14 14 14 14 13 13 13 13 13 13 13 13 12 13 13 13 13 13 13 13 13 13 13 12 13 12 12 12 12 12 13 12 12 12
14 14 14 14 14 13 13 13 13 13 13 13 12 12 12 12 12 12 12 12 12 12 12 13 13 13 13 12 12 12 12 12 12 12 12 12 12 12
14 14 14 13 14 14 13 13 13 13 13 13 13 12 12 12 12 12 12 12 13 13 12 12 13 13 12 12 12 12 12 12 12 12 12 12 12 12
14 14 14 14 13 13 13 13 13 12 12 12 12 12 12 12 12 12 12 12 13 13 12 12 12 12 13 12 12 12 12 12 12 12 12 11 11 11
14 14 14 14 14 13 13 13 12 12 12 12 12 12 12 12 12 12 11 11 12 12 12 12 12 12 12 13 12 12 12 12 11 11 11 11 11 11
13 14 13 14 13 13 13 13 12 12 12 12 12 12 12 12 12 11 11 11 11 11 11 11 11 11 12 12 12 12 11 11 11 11 11 11 11 11
13 13 13 13 13 13 13 12 12 12 12 12 12 12 12 12 11 11 11 11 11 11 11 11 11 11 11 12 12 12 12 11 11 11 11 11 10 10
13 13 13 13 13 12 12 12 12 12 12 12 12 12 12 11 11 11 11 11 11 11 11 11 11 10 11 11 11 12 11 11 11 10 10 10 10 10
13 13 13 12 12 12 12 12 12 12 12 12 12 11 11 11 11 11 11 11 11 11 11 11 11 11 10 11 11 11 11 11 10 10 10 10 10 10
12 12 12 12 12 12 12 12 12 12 11 11 11 11 11 11 11 11 11 11 11 11 11 11 11 10 10 11 10 10 11 10 10 10 10 10 10 10
12 12 12 12 12 12 12 12 12 12 11 11 11 11 11 11 11 11 11 11 11 11 11 11 10 10 11 11 10 10 10 10 10 10 9 10 10 9
12 12 12 12 12 12 12 12 12 11 11 11 11 11 11 11 11 10 10 10 10 10 10 10 10 10 10 10 10 10 10 9 9 9 9 9 9 9
12 12 12 12 12 12 11 11 11 11 11 11 11 10 10 10 10 10 10 10 10 10 10 10 10 10 9 9 10 10 10 9 9 9 9 9 9 9
12 12 11 11 11 11 11 11 11 11 10 10 10 10 10 10 10 10 10 10 10 10 10 10 9 9 9 9 9 9 9 9 9 9 9 9 9 9
11 11 11 11 11 10 10 10 10 10 10 10 10 10 10 10 10 10 10 10 10 10 9 9 9 9 9 9 9 9 9 9 9 9 9 9 9 8
Wind_Speed
2 2 2 1 2 2 2 3 4 4 3 2 2 1 0 1 1 1 0 2 1 0 0 1 0 1 1 1 2 3 3 4 5 5 7 8 8 8
1 1 2 2 1 2 2 3 3 4 4 1 1 0 1 1 1 1 1 2 2 2 0 1 1 1 0 0 1 2 3 3 4 4 5 7 7 7
2 2 2 2 2 2 2 3 3 3 4 2 1 0 1 2 1 2 2 2 2 3 1 1 1 1 1 1 1 1 2 3 3 3 4 4 5 6
3 3 3 2 2 2 2 3 2 2 4 3 2 1 1 2 2 3 2 2 1 4 3 2 3 3 3 2 1 1 1 1 2 3 3 3 4 4
3 3 3 3 3 2 3 2 3 2 2 3 3 1 2 2 2 3 2 2 3 4 5 5 5 4 4 3 3 2 2 1 1 2 2 3 3 3
3 3 3 3 3 3 3 2 2 2 2 3 3 2 2 2 3 3 3 2 3 1 1 2 5 6 5 4 3 2 2 2 2 2 2 2 3 3
4 3 3 2 1 2 2 2 2 3 3 3 3 3 2 2 3 3 3 3 2 1 2 2 3 3 4 6 4 3 3 3 2 2 3 3 4 4
5 5 4 4 4 3 2 2 3 4 4 4 4 3 3 3 3 4 3 3 3 1 3 3 2 2 2 2 4 3 3 3 4 3 3 3 4 4
5 5 5 4 5 5 5 6 4 3 4 5 5 5 4 4 4 5 3 4 4 3 3 4 2 3 2 3 7 5 4 4 4 4 4 4 4 4
6 6 6 5 5 5 5 5 5 5 5 5 4 5 4 4 5 6 6 5 5 3 3 4 3 3 2 2 8 7 5 5 4 4 4 5 5 5
7 7 7 6 3 4 6 7 6 5 5 5 4 4 4 5 6 5 5 5 5 3 2 4 3 3 3 2 6 10 9 8 6 5 5 5 5 6
6 6 6 7 4 6 7 8 8 7 5 5 6 7 7 7 7 7 6 6 5 4 1 3 4 3 3 2 2 4 6 9 9 8 7 6 5 4
6 5 4 8 7 8 8 8 7 6 7 7 7 6 6 6 6 6 6 6 6 5 2 3 4 4 4 3 2 2 2 3 5 6 8 9 8 5
6 5 3 7 7 8 8 6 6 7 7 6 7 6 6 6 5 5 5 6 6 6 5 4 5 5 5 4 3 2 2 3 3 3 3 7 10 9
5 2 1 5 6 7 9 9 8 7 7 7 7 7 6 5 5 5 6 6 8 7 6 6 7 6 6 6 4 3 3 3 3 3 3 3 3 4
6 5 7 8 8 6 6 7 7 7 7 7 7 6 6 6 6 5 5 5 6 5 5 7 7 7 7 6 5 4 4 3 3 3 3 3 4 5
4 5 5 5 6 6 6 5 6 6 7 7 7 6 6 6 6 5 5 6 6 5 4 4 4 5 6 6 5 5 4 4 4 3 4 4 4 4
5 6 6 6 6 6 6 6 6 6 6 7 7 6 6 6 6 5 5 6 6 6 5 4 4 4 5 5 4 6 5 4 4 4 5 5 4 3
6 6 6 6 6 6 6 6 6 6 5 6 7 7 7 6 6 6 6 6 6 6 5 5 5 5 6 6 4 5 5 4 4 4 5 5 5 4
6 7 7 6 6 6 6 6 6 6 6 7 7 7 6 6 6 6 6 6 6 6 5 5 5 5 6 6 4 4 6 6 5 5 5 5 5 4
6 6 6 6 6 6 6 6 6 6 6 7 7 7 7 7 7 7 7 6 7 6 6 5 4 5 5 5 5 5 4 6 6 5 5 6 6 6
6 6 6 6 5 5 5 6 6 6 6 7 6 6 6 6 7 7 7 6 6 6 6 5 4 5 6 7 7 6 6 5 6 9 9 8 6 6
5 5 5 5 5 5 5 6 6 6 6 6 6 6 6 6 6 6 6 7 6 6 6 5 5 5 6 7 6 6 7 7 6 6 6 9 11 9
Wind_Direction
221 221 253 258 258 262 265 267 269 273 265 220 237 211 228 176 119 248 226 102 151 137 34 335 210 206 227 246 253 255 248 241 241 240 228 223 225 229
254 279 273 264 258 252 259 268 268 274 276 264 242 216 287 245 160 276 246 146 164 177 252 256 196 144 86 34 282 254 248 248 239 236 223 220 223 225
242 232 252 279 269 261 251 258 267 270 266 267 245 158 244 284 250 263 247 245 177 156 179 220 197 182 184 197 240 268 251 248 223 207 203 209 220 223
247 247 247 235 237 259 260 262 268 264 263 271 263 243 252 260 261 264 249 249 243 149 161 190 193 194 195 199 222 253 264 255 222 211 204 202 212 218
241 244 247 243 236 236 247 259 262 255 259 261 265 272 260 262 253 251 256 267 259 171 177 184 186 194 201 203 213 230 233 226 215 217 213 196 196 207
233 237 238 238 239 237 233 247 270 271 253 258 267 255 252 263 261 260 251 246 268 248 203 203 188 191 189 188 198 210 211 209 204 192 176 168 169 167
229 228 227 225 296 270 266 251 249 261 258 257 262 261 260 277 274 274 274 264 242 300 286 251 205 208 191 181 185 204 217 218 210 199 186 171 166 163
232 234 225 207 206 208 263 283 289 263 276 279 273 283 284 273 285 283 287 285 279 294 282 273 263 248 223 188 146 172 207 215 212 206 197 182 172 173
233 236 243 220 202 220 209 209 225 246 267 273 281 285 283 284 282 275 280 283 288 303 283 275 260 270 251 125 135 162 183 194 202 208 206 198 187 184
237 234 240 245 236 233 232 227 228 225 231 246 265 271 281 291 274 267 275 265 258 250 268 275 268 264 271 160 148 160 173 182 192 203 210 212 207 196
236 236 237 239 216 224 237 239 240 239 213 214 243 253 272 271 278 272 271 272 269 248 239 269 271 264 252 220 163 171 179 181 183 190 199 204 212 212
233 233 226 229 204 208 236 241 243 246 249 234 231 233 237 234 234 254 267 269 276 267 229 264 269 262 253 230 204 190 193 186 184 184 185 189 195 218
241 238 225 186 205 215 237 247 251 255 246 245 242 242 240 239 238 240 257 268 271 271 265 247 268 260 263 261 246 231 228 215 201 195 188 186 192 218
254 252 227 172 203 220 230 238 246 251 248 248 250 251 248 246 241 242 246 257 266 271 279 270 270 268 262 262 260 241 234 234 230 221 210 187 198 211
259 293 241 199 216 226 223 223 229 241 249 252 253 256 256 255 252 241 236 240 243 245 245 248 259 263 262 264 266 259 253 243 237 233 223 210 213 214
244 223 205 214 230 240 224 223 234 242 251 255 258 261 260 250 243 242 245 244 247 238 224 234 246 257 259 261 264 263 256 248 241 239 238 234 223 219
261 248 243 234 232 232 235 234 237 237 240 248 254 254 254 252 248 242 246 246 246 245 234 229 238 246 254 261 254 254 257 246 236 227 238 238 232 231
247 249 249 249 247 243 243 240 239 242 240 241 245 247 250 252 252 248 244 247 250 250 247 239 235 244 246 238 246 255 254 257 245 227 243 246 244 236
233 249 252 252 254 254 253 252 250 247 245 245 245 245 245 247 248 246 243 246 250 253 249 238 235 241 248 248 224 225 252 255 251 243 242 248 252 246
243 251 251 251 252 255 258 260 258 252 244 245 247 246 244 244 245 246 242 246 253 253 248 242 239 243 255 267 271 246 222 244 253 252 251 254 254 242
251 254 257 256 257 257 258 260 259 257 252 250 251 249 245 242 245 247 245 232 245 249 247 246 242 232 253 258 255 251 234 213 235 259 261 259 256 250
257 257 258 260 262 262 259 258 259 257 255 252 251 249 248 246 247 248 247 241 239 245 252 252 229 231 241 245 249 251 253 237 223 224 239 250 263 265
260 263 264 262 260 259 259 255 255 256 254 253 251 249 249 247 252 252 246 245 245 244 246 246 241 239 241 242 250 255 254 248 244 240 245 228 227 235
Height
1526 1525 1525 1525 1525 1525 1526 1526 1526 1525 1525 1524 1525 1524 1523 1522 1521 1521 1521 1519 1519 1518 1517 1516 1515 1515 1515 1515 1515 1515 1514 1514 1514 1514 1514 1515 1515 1516
1523 1523 1523 1524 1524 1524 1524 1524 1524 1524 1523 1523 1523 1522 1521 1521 1520 1519 1518 1517 1516 1515 1515 1514 1513 1513 1512 1512 1512 1512 1511 1511 1511 1511 1511 1511 1512 1512
1522 1521 1521 1521 1522 1522 1522 1522 1522 1522 1522 1521 1521 1520 1518 1518 1518 1517 1517 1516 1515 1513 1512 1511 1511 1510 1510 1510 1509 1509 1508 1508 1508 1508 1508 1508 1508 1509
1520 1520 1520 1520 1519 1520 1520 1520 1520 1519 1520 1519 1519 1518 1516 1516 1515 1515 1515 1515 1513 1512 1510 1509 1509 1508 1508 1508 1507 1507 1506 1505 1505 1505 1505 1505 1505 1506
1518 1518 1518 1518 1517 1518 1517 1518 1518 1518 1517 1517 1517 1516 1515 1514 1514 1514 1513 1512 1512 1510 1509 1507 1507 1506 1506 1505 1505 1504 1504 1503 1503 1503 1502 1503 1503 1503
1515 1515 1515 1516 1515 1515 1516 1515 1516 1516 1515 1515 1515 1514 1513 1512 1512 1512 1512 1511 1510 1510 1508 1506 1505 1504 1504 1503 1503 1502 1502 1501 1501 1501 1501 1501 1501 1501
1513 1513 1513 1513 1513 1513 1514 1514 1514 1514 1514 1513 1513 1512 1512 1511 1511 1510 1510 1509 1508 1508 1506 1505 1504 1503 1502 1501 1501 1500 1500 1499 1499 1499 1499 1499 1499 1500
1510 1510 1511 1510 1510 1510 1511 1511 1511 1512 1512 1511 1511 1510 1509 1509 1509 1508 1508 1507 1507 1506 1505 1504 1504 1503 1502 1501 1499 1498 1498 1497 1497 1497 1497 1497 1497 1498
1507 1507 1508 1509 1508 1508 1508 1508 1508 1508 1509 1509 1509 1508 1507 1507 1506 1506 1505 1505 1504 1503 1503 1503 1502 1501 1500 1499 1497 1496 1496 1496 1495 1495 1495 1495 1496 1496
1504 1504 1504 1505 1506 1505 1506 1506 1506 1506 1505 1505 1505 1505 1505 1504 1503 1503 1503 1502 1501 1501 1500 1500 1500 1499 1498 1497 1495 1494 1494 1494 1493 1493 1493 1494 1494 1494
1500 1500 1501 1502 1502 1502 1502 1503 1503 1503 1503 1502 1502 1501 1501 1501 1501 1501 1500 1500 1499 1498 1497 1497 1497 1497 1496 1495 1493 1492 1492 1492 1491 1491 1491 1492 1492 1492
1497 1497 1497 1498 1498 1498 1499 1499 1499 1499 1500 1499 1499 1498 1498 1497 1497 1497 1497 1497 1497 1496 1495 1494 1494 1494 1494 1493 1492 1491 1491 1490 1489 1489 1489 1490 1490 1491
1494 1494 1494 1494 1494 1494 1495 1495 1495 1495 1496 1496 1496 1495 1495 1494 1494 1494 1493 1494 1493 1493 1493 1491 1492 1492 1492 1491 1490 1490 1489 1489 1488 1488 1488 1487 1488 1488
1491 1491 1491 1490 1490 1491 1491 1491 1491 1491 1492 1492 1492 1492 1492 1491 1491 1490 1489 1489 1488 1488 1488 1488 1489 1489 1489 1488 1488 1487 1487 1487 1487 1487 1486 1486 1486 1486
1486 1486 1486 1486 1486 1486 1486 1486 1486 1487 1488 1488 1488 1488 1488 1487 1487 1486 1485 1485 1484 1484 1485 1484 1485 1485 1486 1485 1485 1485 1484 1484 1484 1484 1484 1484 1484 1484
1482 1482 1482 1482 1482 1482 1482 1482 1482 1482 1483 1483 1483 1484 1483 1483 1482 1482 1482 1482 1481 1481 1480 1480 1480 1481 1482 1482 1482 1481 1481 1481 1481 1481 1481 1481 1481 1481
1478 1478 1478 1479 1478 1478 1478 1477 1477 1478 1478 1478 1478 1479 1479 1479 1478 1478 1477 1477 1478 1477 1477 1476 1477 1477 1477 1478 1478 1478 1478 1478 1478 1477 1477 1478 1478 1478
1474 1474 1474 1474 1474 1474 1474 1473 1473 1473 1473 1473 1473 1474 1474 1474 1474 1473 1473 1473 1473 1474 1473 1473 1473 1473 1474 1474 1474 1474 1474 1474 1474 1474 1474 1474 1474 1475
1470 1470 1470 1470 1470 1470 1469 1469 1468 1469 1468 1468 1468 1469 1469 1469 1469 1469 1469 1469 1469 1469 1469 1469 1469 1469 1469 1469 1469 1470 1470 1470 1471 1471 1470 1470 1470 1471
1466 1466 1466 1466 1466 1465 1465 1465 1464 1464 1464 1464 1464 1464 1464 1464 1464 1464 1464 1465 1465 1465 1465 1465 1465 1465 1465 1466 1466 1466 1466 1466 1466 1466 1467 1466 1466 1467
1461 1461 1461 1461 1461 1461 1461 1460 1460 1460 1459 1459 1459 1459 1459 1459 1459 1459 1459 1459 1460 1460 1460 1460 1460 1460 1460 1461 1461 1461 1462 1462 1462 1462 1462 1463 1462 1462
1457 1457 1457 1457 1457 1457 1456 1456 1455 1455 1455 1455 1455 1455 1454 1454 1454 1454 1454 1454 1454 1455 1455 1455 1455 1456 1456 1456 1456 1456 1457 1457 1457 1457 1457 1458 1458 1458
1453 1453 1453 1453 1452 1452 1452 1451 1450 1450 1450 1450 1450 1450 1450 1449 1449 1449 1449 1449 1449 1450 1450 1451 1451 1451 1452 1452 1452 1452 1452 1452 1452 1452 1453 1453 1453 1453